Weather History for Eureka, NU

Change the Weather History Date:

Thursday, May 16, 2013

  Actual Average Record
Temperature  
Mean Temperature 14 °F -  
Max Temperature 18 °F 30 °F 26 °F (2003)
Min Temperature 9 °F 19 °F -2 °F (2001)
Degree Days  
Heating Degree Days 52    
Moisture  
Dew Point 5 °F    
Average Humidity 64    
Maximum Humidity 73    
Minimum Humidity 43    
Precipitation  
Precipitation 0.00 in 0.01 in - ()
Sea Level Pressure  
Sea Level Pressure 30.23 in    
Wind  
Wind Speed 11 mph ()    
Max Wind Speed 18 mph    
Max Gust Speed 22 mph    
Visibility 15.0 miles    
Events      
Averages and records for this station are not official NWS values.
T = Trace of Precipitation, MM = Missing Value Source: Averaged Metar Reports

Daily Weather History Graph

Daily Weather History Graph

Search for Another Location

Airport:

Trip Planner

Search our weather history database for the weather conditions in past years. The results will help you decide how hot, cold, wet, or windy it might be!

Date:

Astronomy

Dec. 31, 1969 Rise Set
Actual Time Sun does not rise Sun does not rise
Civil Twilight Sun does not rise Sun does not rise
Nautical Twilight Sun does not rise Sun does not rise
Astronomical Twilight Sun does not rise Sun does not rise
Moon No Moon Rise No Moon Set
Length of Visible Light 24h 00m
Length of Day
24h 00m
Waxing Crescent, 36% of the Moon is Illuminated
May 16
Waxing Crescent
May 17
First Quarter
May 24
Full
May 31
Last Quarter
Jun 8
New

Hourly Weather History & Observations

Time (CDT) Temp. Windchill Dew Point Humidity Pressure Visibility Wind Dir Wind Speed Gust Speed Precip Events Conditions
1:00 AM 12 °F - 3 °F 56% 30.31 in 15 mi South 17.3 mph - -   Overcast
1:00 AM 12.2 °F -4.3 °F 3.2 °F 67% 30.31 in 15.0 mi South 16.1 mph 21.9 mph N/A   Overcast
2:00 AM 12.2 °F -5.3 °F 3.2 °F 67% 30.31 in 15.0 mi South 18.4 mph - N/A   Overcast
3:00 AM 14.0 °F -3.0 °F 3.2 °F 62% 30.31 in 15.0 mi South 18.4 mph - N/A   Overcast
4:00 AM 14.0 °F -2.0 °F 3.2 °F 62% 30.31 in 15.0 mi SSW 16.1 mph - N/A   Overcast
5:00 AM 12.2 °F -2.5 °F 1.4 °F 62% 30.31 in 15.0 mi SSW 12.7 mph - N/A   Overcast
6:00 AM 12.2 °F -1.0 °F 1.4 °F 62% 30.30 in 15.0 mi SSW 10.4 mph - N/A   Mostly Cloudy
7:00 AM 12 °F - 3 °F 54% 30.30 in 15 mi SSW 11.5 mph - -   Scattered Clouds
7:00 AM 12.2 °F -2.5 °F 3.2 °F 67% 30.30 in 15.0 mi SSW 12.7 mph - N/A   Mostly Cloudy
8:00 AM 12.2 °F -2.5 °F 3.2 °F 67% 30.29 in 15.0 mi SSW 12.7 mph - N/A   Overcast
9:00 AM 14.0 °F -0.2 °F 5.0 °F 67% 30.27 in 15.0 mi South 12.7 mph - N/A   Overcast
10:00 AM 15.8 °F 0.3 °F 5.0 °F 62% 30.26 in 15.0 mi SSW 16.1 mph - N/A   Overcast
11:00 AM 15.8 °F 2.1 °F 5.0 °F 62% 30.24 in 15.0 mi SSW 12.7 mph - N/A   Mostly Cloudy
12:00 PM 15.8 °F 3.4 °F 6.8 °F 68% 30.22 in 15.0 mi SW 10.4 mph - N/A   Scattered Clouds
1:00 PM 18 °F - 9 °F 56% 30.21 in 15 mi South 9.2 mph - -   Clear
1:00 PM 17.6 °F 7.3 °F 8.6 °F 68% 30.21 in 15.0 mi South 8.1 mph - N/A   Partly Cloudy
2:00 PM 17.6 °F 6.4 °F 6.8 °F 63% 30.20 in 15.0 mi South 9.2 mph - N/A   Clear
3:00 PM 17.6 °F 8.2 °F 8.6 °F 68% 30.19 in 15.0 mi South 6.9 mph - N/A   Clear
4:00 PM 17.6 °F 8.2 °F 8.6 °F 68% 30.17 in 15.0 mi South 6.9 mph - N/A   Clear
5:00 PM 17.6 °F 9.3 °F 8.6 °F 68% 30.16 in 15.0 mi SSW 5.8 mph - N/A   Clear
6:00 PM 17.6 °F 12.3 °F 8.6 °F 68% 30.15 in 15.0 mi SSW 3.5 mph - N/A   Clear
7:00 PM 18 °F - 5 °F 43% 30.14 in 15 mi Calm Calm - -  
7:00 PM 17.6 °F - 5.0 °F 58% 30.14 in 15.0 mi Calm Calm - N/A   Clear
8:00 PM 14.0 °F - 6.8 °F 73% 30.12 in 15.0 mi Calm Calm - N/A   Clear
9:00 PM 12.2 °F 6.1 °F 5.0 °F 73% 30.11 in 15.0 mi ENE 3.5 mph - N/A   Clear
10:00 PM 10.4 °F - 3.2 °F 73% 30.09 in 15.0 mi Calm Calm - N/A   Clear